ONEWEB-0353 (49282 NORAD) Tracking and Keplerian Element Data

This shows tracking and keplerian element data for the satellite.

Feedback or suggestion? Click here.




ElementValue
Catalog49282
NameONEWEB-0353
Epoch Orbit353
Epoch Day339.91667824
Epoch Year2021
RAAN275.0298
Inclination87.2002
Eccentricity0.0012205
Argument of Perigee82.0772
Mean Anonmoly232.4782
Mean Motion14.88422633
Decay Rate-0.0005244
L11 49282U 21090D 21339.91667824 -.00052440 00000+0 -57020-2 0 9990
L22 49282 87.2002 275.0298 0012205 82.0772 232.4782 14.88422633 3535

Live tracking and technical data element details for ONEWEB-0353 (NORAD 49282). ONEWEB-0353 can be tracked NOW for your location showing map with azimuth and elevation plus other details from your city location.

Track the satellite on the map from your city or location and see movement details for azimuth, elevation, latitude, longitude, range, height, and movement on the map or in text.







IsCatalogInMostPopularTable: catalog: 49282, numindb: 4
Update: records affected: 1



GetName: 49282 ONEWEB-0353

Hit Count: updated at: Mon, 06 Dec 2021 15:48:37 GMT